Weather History for Wolf Creek Pass, CO

Change the Weather History Date:

Thursday, March 21, 2013

  Actual Average (KALS) Record (KALS)
Temperature  
Mean Temperature 24 °F 35 °F  
Max Temperature 32 °F 52 °F 72 °F (1997)
Min Temperature 17 °F 19 °F -12 °F (1970)
Degree Days  
Heating Degree Days 40 30  
Month to date heating degree days 691  
Since 1 July heating degree days 7020  
Cooling Degree Days 0 0  
Month to date cooling degree days 0  
Year to date cooling degree days 0  
Moisture  
Dew Point 15 °F    
Average Humidity 76    
Maximum Humidity 100    
Minimum Humidity 30    
Precipitation  
Precipitation 0.06 in 0.02 in 0.14 in (1941)
Month to date precipitation 0.34  
Year to date precipitation 0.86  
Snow  
Snow 0.00 in 0.20 in 1.00 in (1979)
Month to date snowfall 3.3  
Since 1 July snowfall 21.4  
Snow Depth -    
Sea Level Pressure  
Sea Level Pressure 29.87 in    
Wind  
Wind Speed 20 mph (SW)    
Max Wind Speed 37 mph    
Max Gust Speed 47 mph    
Visibility 6 miles    
Events Fog , Snow    
T = Trace of Precipitation, MM = Missing Value Source: NWS Daily Summary

Daily Weather History Graph

Daily Weather History Graph

Search for Another Location

Airport:

Trip Planner

Search our weather history database for the weather conditions in past years. The results will help you decide how hot, cold, wet, or windy it might be!

Date:

Astronomy

Mar. 21, 2013 Rise Set
Actual Time 7:08 AM MDT 7:20 PM MDT
Civil Twilight 6:42 AM MDT 7:46 PM MDT
Nautical Twilight 6:12 AM MDT 8:16 PM MDT
Astronomical Twilight 5:41 AM MDT 8:47 PM MDT
Moon 1:58 PM MDT (3/21) 3:26 AM MDT (3/21)
Length of Visible Light 13h 03m
Length of Day
12h 11m
Waxing Gibbous, 69% of the Moon is Illuminated
Mar 21
Waxing Gibbous
Mar 27
Full
Apr 2
Last Quarter
Apr 10
New
Apr 18
First Quarter

Hourly Weather History & Observations

Time (MDT) Temp. Windchill Dew Point Humidity Pressure Visibility Wind Dir Wind Speed Gust Speed Precip Events Conditions
12:35 AM 21.2 °F 6.4 °F 21.2 °F 100% 30.02 in 0.2 mi SW 18.4 mph 27.6 mph N/A Fog Light Freezing Fog
12:55 AM 21.2 °F 6.8 °F 21.2 °F 100% 30.01 in 0.2 mi SW 17.3 mph 23.0 mph N/A Fog Light Freezing Fog
1:15 AM 21.2 °F 6.0 °F 21.2 °F 100% 30.01 in 0.2 mi SW 19.6 mph 26.5 mph N/A Snow Light Snow
1:35 AM 21.2 °F 7.3 °F 21.2 °F 100% 29.99 in 0.2 mi SW 16.1 mph 27.6 mph N/A Snow Light Snow
2:15 AM 21.2 °F 5.6 °F 21.2 °F 100% 29.98 in 0.5 mi SW 20.7 mph 27.6 mph N/A Fog Light Freezing Fog
2:35 AM 21.2 °F 5.2 °F 21.2 °F 100% 29.98 in 5.0 mi SW 21.9 mph 31.1 mph N/A   Overcast
2:55 AM 21.2 °F 4.9 °F 21.2 °F 100% 29.97 in 1.2 mi SW 23.0 mph - N/A Snow Light Snow
3:15 AM 21.2 °F 4.2 °F 21.2 °F 100% 29.95 in 1.2 mi SW 25.3 mph 28.8 mph N/A   Overcast
3:35 AM 21.2 °F 5.6 °F 21.2 °F 100% 29.94 in 1.5 mi SW 20.7 mph 26.5 mph N/A   Overcast
4:15 AM 21.2 °F 6.8 °F 21.2 °F 100% 29.92 in 7.0 mi SW 17.3 mph 23.0 mph N/A Snow Light Snow
4:35 AM 21.2 °F 7.8 °F 21.2 °F 100% 29.91 in 10.0 mi SW 15.0 mph - N/A   Overcast
5:15 AM 21.2 °F 6.4 °F 21.2 °F 100% 29.90 in 10.0 mi SW 18.4 mph 26.5 mph N/A   Overcast
5:35 AM 21.2 °F 7.3 °F 21.2 °F 100% 29.89 in 10.0 mi SW 16.1 mph 24.2 mph N/A   Overcast
5:55 AM 21.2 °F 6.0 °F 21.2 °F 100% 29.89 in 10.0 mi SW 19.6 mph 24.2 mph N/A   Overcast
6:15 AM 21.2 °F 6.4 °F 21.2 °F 100% 29.89 in 3.0 mi SW 18.4 mph 28.8 mph N/A   Overcast
6:35 AM 21.2 °F 6.4 °F 21.2 °F 100% 29.89 in 1.0 mi WSW 18.4 mph 28.8 mph N/A   Overcast
6:55 AM 21.2 °F 6.4 °F 21.2 °F 100% 29.88 in 0.5 mi SW 18.4 mph 28.8 mph N/A Fog Light Freezing Fog
7:15 AM 21.2 °F 5.2 °F 21.2 °F 100% 29.86 in 0.5 mi SW 21.9 mph 31.1 mph N/A Fog Light Freezing Fog
7:35 AM 21.2 °F 4.9 °F 21.2 °F 100% 29.86 in 0.2 mi SW 23.0 mph 31.1 mph N/A Snow Heavy Snow
7:55 AM 21.2 °F 6.0 °F 19.4 °F 93% 29.86 in 0.2 mi SSW 19.6 mph 32.2 mph 0.01 in Snow Heavy Snow
8:15 AM 21.2 °F 6.0 °F 19.4 °F 93% 29.86 in 0.2 mi SW 19.6 mph 32.2 mph N/A Snow Heavy Snow
8:35 AM 21.2 °F 6.4 °F 19.4 °F 93% 29.86 in 0.2 mi WSW 18.4 mph 26.5 mph 0.01 in Snow Heavy Snow
8:55 AM 21.2 °F 4.9 °F 19.4 °F 93% 29.84 in 0.2 mi SW 23.0 mph 33.4 mph 0.01 in Snow Heavy Snow
9:15 AM 21.2 °F 3.9 °F 19.4 °F 93% 29.85 in 0.2 mi SW 26.5 mph 35.7 mph N/A Snow Light Snow
9:35 AM 21.2 °F 4.5 °F 21.2 °F 100% 29.86 in 0.2 mi SW 24.2 mph 35.7 mph N/A Snow Light Snow
10:15 AM 23.0 °F 8.0 °F 21.2 °F 93% 29.86 in 0.2 mi SW 20.7 mph 24.2 mph N/A Fog Light Freezing Fog
10:55 AM 23.0 °F 8.7 °F 21.2 °F 93% 29.84 in 0.8 mi SW 18.4 mph - 0.01 in Snow Light Snow
11:15 AM 21.2 °F 8.9 °F 21.2 °F 100% 29.84 in 0.2 mi SW 12.7 mph 23.0 mph N/A Snow Snow
11:35 AM 23.0 °F 5.4 °F 21.2 °F 93% 29.82 in 0.2 mi SW 29.9 mph 38.0 mph 0.02 in Fog Light Freezing Fog
11:55 AM 23.0 °F 9.6 °F 23.0 °F 100% 29.81 in 0.2 mi SW 16.1 mph 33.4 mph 0.03 in Snow Light Snow
12:15 PM 23.0 °F 8.3 °F 23.0 °F 100% 29.80 in 1.2 mi SW 19.6 mph 34.5 mph N/A   Overcast
12:35 PM 24.8 °F 10.0 °F 23.0 °F 93% 29.79 in 3.0 mi SW 21.9 mph 34.5 mph N/A   Overcast
12:55 PM 23.0 °F 5.1 °F 21.2 °F 93% 29.79 in 2.0 mi SW 31.1 mph 46.0 mph N/A   Overcast
1:15 PM 23.0 °F 7.6 °F 21.2 °F 93% 29.80 in 2.0 mi SW 21.9 mph 42.6 mph N/A   Overcast
1:35 PM 23.0 °F 3.9 °F 21.2 °F 93% 29.77 in 1.2 mi SW 36.8 mph 47.2 mph N/A Snow Light Snow
1:55 PM 23.0 °F 6.6 °F 21.2 °F 93% 29.79 in 1.2 mi SW 25.3 mph 39.1 mph N/A Snow Light Snow
2:15 PM 21.2 °F 3.9 °F 21.2 °F 100% 29.79 in 2.0 mi SW 26.5 mph 44.9 mph N/A   Overcast
2:35 PM 23.0 °F 6.3 °F 21.2 °F 93% 29.79 in 7.0 mi WSW 26.5 mph 40.3 mph N/A   Overcast
2:55 PM 26.6 °F 14.7 °F 19.4 °F 74% 29.79 in 7.0 mi WSW 15.0 mph 40.3 mph N/A   Mostly Cloudy
3:15 PM 30.2 °F 15.9 °F 12.2 °F 47% 29.79 in 10.0 mi SW 26.5 mph 36.8 mph N/A   Scattered Clouds
3:35 PM 30.2 °F 15.9 °F 12.2 °F 47% 29.79 in 10.0 mi SW 26.5 mph 35.7 mph N/A   Scattered Clouds
3:55 PM 30.2 °F 16.5 °F 14.0 °F 51% 29.80 in 10.0 mi WSW 24.2 mph 36.8 mph N/A   Mostly Cloudy
4:15 PM 30.2 °F 18.1 °F 10.4 °F 44% 29.80 in 10.0 mi WSW 18.4 mph 46.0 mph N/A   Scattered Clouds
4:35 PM 32.0 °F 20.8 °F 8.6 °F 38% 29.81 in 10.0 mi WSW 17.3 mph 26.5 mph N/A   Scattered Clouds
4:55 PM 30.2 °F 15.4 °F 3.2 °F 32% 29.81 in 10.0 mi SW 28.8 mph 35.7 mph N/A   Clear
5:15 PM 32.0 °F 19.5 °F 3.2 °F 30% 29.82 in 10.0 mi WSW 21.9 mph 31.1 mph N/A   Clear
5:35 PM 30.2 °F 17.4 °F 3.2 °F 32% 29.83 in 10.0 mi WSW 20.7 mph 29.9 mph N/A   Clear
5:55 PM 30.2 °F 17.8 °F 3.2 °F 32% 29.84 in 10.0 mi WSW 19.6 mph 36.8 mph N/A   Clear
6:15 PM 28.4 °F 17.5 °F 5.0 °F 37% 29.84 in 10.0 mi SSW 13.8 mph 28.8 mph N/A   Clear
6:35 PM 28.4 °F 16.2 °F 5.0 °F 37% 29.85 in 10.0 mi SW 17.3 mph 26.5 mph N/A   Clear
6:55 PM 26.6 °F 12.4 °F 5.0 °F 40% 29.85 in 10.0 mi SSW 21.9 mph 31.1 mph N/A   Scattered Clouds
7:15 PM 26.6 °F 12.4 °F 5.0 °F 40% 29.85 in 10.0 mi SW 21.9 mph 36.8 mph N/A   Scattered Clouds
7:35 PM 23.0 °F 6.9 °F 6.8 °F 50% 29.86 in 10.0 mi SW 24.2 mph 34.5 mph N/A   Mostly Cloudy
7:55 PM 23.0 °F 9.2 °F 6.8 °F 50% 29.87 in 10.0 mi SW 17.3 mph 29.9 mph N/A   Mostly Cloudy
8:16 PM 21.2 °F 8.3 °F 6.8 °F 54% 29.88 in 10.0 mi SSW 13.8 mph 25.3 mph N/A   Mostly Cloudy
8:36 PM 21.2 °F 6.4 °F 6.8 °F 54% 29.89 in 10.0 mi SSW 18.4 mph 24.2 mph N/A   Mostly Cloudy
8:56 PM 19.4 °F 4.1 °F 6.8 °F 58% 29.89 in 10.0 mi SW 18.4 mph 24.2 mph N/A   Scattered Clouds
9:16 PM 19.4 °F 3.6 °F 6.8 °F 58% 29.89 in 10.0 mi SW 19.6 mph 25.3 mph N/A   Clear
9:35 PM 19.4 °F 3.6 °F 6.8 °F 58% 29.89 in 10.0 mi SW 19.6 mph 27.6 mph N/A   Clear
9:56 PM 17.6 °F 1.3 °F 6.8 °F 63% 29.89 in 10.0 mi SW 19.6 mph 27.6 mph N/A   Clear
10:15 PM 17.6 °F 1.3 °F 6.8 °F 63% 29.90 in 10.0 mi SSW 19.6 mph 27.6 mph N/A   Clear
10:35 PM 17.6 °F 1.3 °F 5.0 °F 58% 29.89 in 10.0 mi SW 19.6 mph 28.8 mph N/A   Clear
10:55 PM 17.6 °F 1.3 °F 1.4 °F 49% 29.89 in 10.0 mi SW 19.6 mph 26.5 mph N/A   Clear
11:15 PM 17.6 °F 0.5 °F -0.4 °F 45% 29.89 in 10.0 mi SW 21.9 mph 27.6 mph N/A   Clear
11:35 PM 17.6 °F -0.6 °F -4.0 °F 38% 29.89 in 10.0 mi SW 25.3 mph 28.8 mph N/A   Clear
11:55 PM 17.6 °F 0.5 °F -5.8 °F 35% 29.89 in 10.0 mi SW 21.9 mph 29.9 mph N/A   Clear